Weather History for Wheeler AAF, HI

Change the Weather History Date:

Monday, May 27, 2013

  Actual Average Record
Temperature  
Mean Temperature 74 °F -  
Max Temperature 81 °F 78 °F 91 °F (2003)
Min Temperature 67 °F 64 °F 61 °F (2007)
Cooling Degree Days 9    
Growing Degree Days 24 (Base 50)    
Moisture  
Dew Point 63 °F    
Average Humidity 69    
Maximum Humidity 87    
Minimum Humidity 51    
Precipitation  
Precipitation 0.00 in - - ()
Sea Level Pressure  
Sea Level Pressure 30.06 in    
Wind  
Wind Speed 5 mph (ENE)    
Max Wind Speed 17 mph    
Max Gust Speed 26 mph    
Visibility 10 miles    
Events      
Averages and records for this station are not official NWS values.
T = Trace of Precipitation, MM = Missing Value Source: NWS Daily Summary

Daily Weather History Graph

Daily Weather History Graph

Search for Another Location

Airport:

Trip Planner

Search our weather history database for the weather conditions in past years. The results will help you decide how hot, cold, wet, or windy it might be!

Date:

Astronomy

May. 27, 2013 Rise Set
Actual Time 5:50 AM HST 7:08 PM HST
Civil Twilight 5:25 AM HST 7:33 PM HST
Nautical Twilight 4:56 AM HST 8:02 PM HST
Astronomical Twilight 4:26 AM HST 8:32 PM HST
Moon 10:06 PM HST (5/27) 8:34 AM HST (5/27)
Length of Visible Light 14h 07m
Length of Day
13h 18m
Waning Gibbous, 89% of the Moon is Illuminated
May 27
Waning Gibbous
May 31
Last Quarter
Jun 8
New
Jun 16
First Quarter
Jun 23
Full

Hourly Weather History & Observations

Time (HST) Temp. Heat Index Dew Point Humidity Pressure Visibility Wind Dir Wind Speed Gust Speed Precip Events Conditions
1:55 AM 70.7 °F - 62.8 °F 76% 30.06 in 10.0 mi Calm Calm - N/A   Scattered Clouds
2:55 AM 70.7 °F - 62.6 °F 75% 30.04 in 10.0 mi Calm Calm - N/A   Partly Cloudy
3:55 AM 67.1 °F - 61.9 °F 83% 30.03 in 10.0 mi West 3.5 mph - N/A   Partly Cloudy
4:55 AM 68.2 °F - 62.4 °F 82% 30.04 in 10.0 mi Calm Calm - N/A   Partly Cloudy
5:55 AM 68.5 °F - 63.1 °F 83% 30.04 in 10.0 mi Calm Calm - N/A   Scattered Clouds
6:55 AM 71.4 °F - 63.3 °F 76% 30.06 in 10.0 mi Calm Calm - N/A   Clear
7:55 AM 74.5 °F - 63.1 °F 68% 30.07 in 10.0 mi East 8.1 mph - N/A   Clear
8:55 AM 77.2 °F - 63.5 °F 63% 30.08 in 10.0 mi East 9.2 mph 18.4 mph N/A   Scattered Clouds
9:55 AM 78.1 °F - 63.3 °F 60% 30.08 in 10.0 mi NE 12.7 mph 18.4 mph N/A   Mostly Cloudy
10:55 AM 78.6 °F - 61.9 °F 56% 30.07 in 10.0 mi East 15.0 mph 21.9 mph N/A   Clear
11:55 AM 81.0 °F 81.8 °F 61.3 °F 51% 30.06 in 10.0 mi ENE 13.8 mph 26.5 mph N/A   Clear
12:55 PM 79.9 °F - 62.8 °F 56% 30.06 in 10.0 mi ENE 15.0 mph 20.7 mph N/A   Overcast
1:55 PM 79.9 °F - 61.5 °F 53% 30.05 in 10.0 mi NE 17.3 mph - N/A   Clear
2:55 PM 79.5 °F - 62.1 °F 55% 30.03 in 10.0 mi East 10.4 mph 20.7 mph N/A   Clear
3:55 PM 79.3 °F - 62.6 °F 56% 30.03 in 10.0 mi NE 13.8 mph 19.6 mph N/A   Clear
4:55 PM 77.7 °F - 62.4 °F 59% 30.03 in 10.0 mi Variable 6.9 mph - N/A   Clear
5:55 PM 75.2 °F - 63.7 °F 67% 30.04 in 10.0 mi East 6.9 mph - N/A   Clear
6:55 PM 73.4 °F - 63.7 °F 71% 30.05 in 10.0 mi East 4.6 mph - N/A   Clear
7:55 PM 72.7 °F - 63.7 °F 73% 30.07 in 10.0 mi East 3.5 mph - N/A   Clear
8:55 PM 71.2 °F - 62.8 °F 75% 30.08 in 10.0 mi WNW 4.6 mph - N/A   Clear
9:55 PM 70.0 °F - 63.7 °F 80% 30.09 in 10.0 mi North 4.6 mph - N/A   Clear
10:55 PM 68.2 °F - 63.0 °F 83% 30.09 in 10.0 mi Calm Calm - N/A   Clear
11:55 PM 67.1 °F - 63.1 °F 87% 30.08 in 10.0 mi Calm Calm - N/A   Scattered Clouds